Flag for Russia Weather past 2 weeks in Novorossiysk, Russia

Now
55 °F

Clear.


Feels Like: 55 °F
Forecast: 57 / 77 °F
Wind: 3 mph from East

Location: Anapa / Vitiazevo

Current Time: May 23, 2015 at 3:38:13 AM

Latest Report: May 23, 2015 at 3:00 AM


Visibility: 3 mi

Pressure: 29.89 "Hg

Humidity: 94%

Dew point: 54 °F

Location of NovorossiyskLocation

Historic Weather in Novorossiysk — Graph

°F

Novorossiysk temperature yesterday

Maximum temperature yesterday: 84 °F (at 4:00 PM)
Minimum temperature yesterday: 63 °F (at 12:30 AM)
Average temperature yesterday: 72 °F

Past Weeks' High & Low Weather Summary

 TemperatureHumidityPressure
High84 °F (May 22, 4:00 PM)100% (May 9, 5:00 AM)30.09 "Hg (May 9, 5:00 AM)
Low45 °F (May 11, 1:00 AM)26% (May 20, 1:00 PM)29.83 "Hg (May 22, 4:00 AM)
Average62 °F69%29.98 "Hg
* Reported May 8 2:00 AM — May 23 2:00 AM, Novorossiysk, Weather by CustomWeather, © 2015

Note: Actual official high and low records may vary slightly from our data, if they occured in-between our weather recording intervals... More about our weather records

Advertising

Novorossiysk weather history for previous 24 hours

 ConditionsComfort  
Time TempWeatherWind HumidityBarometerVisibility
2:00 AM
Sat, May 23
59 °FClear.1 mph100%29.89 "Hg10 mi
12:00 AM61 °FClear.6 mph59%29.89 "Hg10 mi
11:00 PM
Fri, May 22
64 °FClear.10 mph49%29.89 "Hg10 mi
10:30 PM63 °FClear.6 mph59%29.89 "Hg10 mi
10:00 PM64 °FClear.3 mph56%29.89 "Hg10 mi
9:30 PM66 °FClear.6 mph52%29.89 "Hg10 mi
9:00 PM68 °FClear.8 mph49%29.89 "Hg10 mi
8:30 PM70 °FSunny.8 mph46%29.86 "Hg10 mi
8:00 PM72 °FSunny.13 mph44%29.86 "Hg10 mi
7:30 PM73 °FSunny.13 mph41%29.86 "Hg10 mi
7:00 PM77 °FSunny.13 mph39%29.86 "Hg10 mi
6:30 PM79 °FSunny.13 mph37%29.86 "Hg10 mi
6:00 PM81 °FSunny.15 mph32%29.86 "Hg10 mi
5:30 PM82 °FSunny.20 mph30%29.86 "Hg10 mi
5:00 PM82 °FSunny.20 mph32%29.86 "Hg10 mi
4:30 PM84 °FSunny.20 mph29%29.86 "Hg10 mi
4:00 PM84 °FPassing clouds.20 mph29%29.86 "HgN/A
3:30 PM82 °FSunny.20 mph32%29.86 "Hg10 mi
3:00 PM82 °FPassing clouds.20 mph32%29.86 "HgN/A
2:30 PM82 °FSunny.22 mph32%29.86 "Hg10 mi
2:00 PM82 °FSunny.22 mph32%29.86 "Hg10 mi
1:30 PM82 °FSunny.20 mph35%29.86 "Hg10 mi
1:00 PM81 °FSunny.22 mph37%29.89 "Hg10 mi
12:30 PM79 °FSunny.24 mph48%29.89 "Hg10 mi
12:00 PM79 °FSunny.22 mph58%29.89 "Hg10 mi
11:30 AM81 °FSunny.24 mph39%29.89 "Hg10 mi
11:00 AM79 °FSunny.22 mph42%29.89 "Hg10 mi
10:30 AM73 °FSunny.22 mph53%29.89 "Hg10 mi
10:00 AM73 °FSunny.22 mph50%29.89 "Hg10 mi
9:30 AM72 °FSunny.20 mph53%29.89 "Hg10 mi
9:00 AM68 °FSunny.24 mph56%29.89 "Hg10 mi
8:30 AM68 °FSunny.24 mph56%29.86 "Hg10 mi
8:00 AM66 °FSunny.24 mph56%29.86 "Hg10 mi
7:30 AM64 °FSunny.22 mph56%29.86 "Hg10 mi
7:00 AM63 °FSunny.22 mph56%29.86 "Hg10 mi
6:30 AM63 °FSunny.20 mph52%29.86 "Hg10 mi
6:00 AM63 °FSunny.22 mph52%29.83 "Hg10 mi
5:30 AM63 °FPassing clouds.13 mph52%29.83 "HgN/A
5:00 AM63 °FClear.20 mph52%29.83 "Hg10 mi
4:00 AM63 °FClear.13 mph52%29.83 "Hg10 mi
3:00 AM63 °FClear.15 mph52%29.86 "Hg10 mi
Weather by CustomWeather, © 2015

See weather overviewHow to use our weather pages